Change the Weather History Date:

Friday, January 11, 2013

  Actual Average Record
Temperature  
Mean Temperature 25 °F 18 °F  
Max Temperature 36 °F 28 °F 55 °F (1958)
Min Temperature 13 °F 9 °F -29 °F (1918)
Degree Days  
Heating Degree Days 40 47  
Month to date heating degree days 477 514  
Since 1 July heating degree days 3327 3449  
Cooling Degree Days 0 0  
Month to date cooling degree days 0 0  
Year to date cooling degree days 0 0  
Moisture  
Dew Point 25 °F    
Average Humidity 87    
Maximum Humidity 100    
Minimum Humidity 73    
Precipitation  
Precipitation T in 0.01 in 0.40 in (1905)
Month to date precipitation 0.01 0.08  
Year to date precipitation 0.01 0.08  
Snow  
Snow T in - 5.00 in (1964)
Month to date snowfall T  
Since 1 July snowfall 10.4  
Snow Depth 2.00 in    
Sea Level Pressure  
Sea Level Pressure 29.51 in    
Wind  
Wind Speed 15 mph (WNW)    
Max Wind Speed 33 mph    
Max Gust Speed 46 mph    
Visibility 6 miles    
Events Rain , Snow    
T = Trace of Precipitation, MM = Missing Value Source: NWS Daily Summary

Daily Weather History Graph

Daily Weather History Graph

Search for Another Location

Airport or City:

Trip Planner

Search our weather history database for the weather conditions in past years. The results will help you decide how hot, cold, wet, or windy it might be!

Date:

Astronomy

Jan. 11, 2013 Rise Set
Actual Time 8:04 AM CST 5:16 PM CST
Civil Twilight 7:32 AM CST 5:48 PM CST
Nautical Twilight 6:56 AM CST 6:24 PM CST
Astronomical Twilight 6:22 AM CST 6:58 PM CST
Moon 7:37 AM CST (1/11) 5:37 PM CST (1/11)
Length of Visible Light 10h 16m
Length of Day
9h 11m
Waning Crescent, 0% of the Moon is Illuminated
Jan 11
Waning Crescent
Jan 11
New
Jan 18
First Quarter
Jan 26
Full
Feb 3
Last Quarter

Hourly Weather History & Observations

Time (CST) Temp. Windchill Dew Point Humidity Pressure Visibility Wind Dir Wind Speed Gust Speed Precip Events Conditions
12:53 AM 35.1 °F 25.9 °F 33.1 °F 92% 29.57 in 10.0 mi South 13.8 mph - N/A   Overcast
1:53 AM 36.0 °F 29.0 °F 34.0 °F 93% 29.55 in 10.0 mi South 9.2 mph - N/A   Overcast
2:53 AM 36.0 °F 29.0 °F 34.0 °F 93% 29.53 in 10.0 mi South 9.2 mph - N/A   Overcast
3:53 AM 36.0 °F 28.5 °F 33.1 °F 89% 29.50 in 10.0 mi South 10.4 mph - N/A   Overcast
4:53 AM 35.1 °F 28.6 °F 33.1 °F 92% 29.50 in 10.0 mi South 8.1 mph - N/A   Overcast
5:53 AM 35.1 °F 30.1 °F 33.1 °F 92% 29.46 in 10.0 mi SE 5.8 mph - N/A   Overcast
6:00 AM 33.8 °F 27.7 °F 33.8 °F 100% 29.43 in 10.0 mi SE 6.9 mph - N/A   Overcast
6:43 AM 35.6 °F 29.2 °F 33.8 °F 93% 29.43 in 10.0 mi South 8.1 mph - N/A   Mostly Cloudy
6:53 AM 34.0 °F 27.2 °F 33.1 °F 96% 29.47 in 10.0 mi South 8.1 mph - N/A   Overcast
7:53 AM 36.0 °F 29.0 °F 34.0 °F 93% 29.47 in 10.0 mi South 9.2 mph - N/A   Overcast
8:53 AM 35.1 °F 32.2 °F 33.1 °F 92% 29.44 in 10.0 mi SSE 3.5 mph - N/A   Overcast
9:42 AM 35.6 °F 30.7 °F 33.8 °F 93% 29.41 in 6.0 mi South 5.8 mph - N/A   Overcast
9:53 AM 36.0 °F 30.3 °F 35.1 °F 97% 29.45 in 7.0 mi South 6.9 mph - N/A   Overcast
10:27 AM 35.6 °F 29.9 °F 33.8 °F 93% 29.42 in 10.0 mi South 6.9 mph - N/A   Overcast
10:53 AM 36.0 °F 32.1 °F 34.0 °F 93% 29.46 in 5.0 mi SSW 4.6 mph - N/A   Overcast
11:33 AM 33.8 °F 25.8 °F 32.0 °F 93% 29.41 in 1.8 mi NNW 10.4 mph - N/A   Overcast
11:41 AM 33.8 °F 24.8 °F 32.0 °F 93% 29.41 in 1.2 mi NW 12.7 mph - N/A   Overcast
11:53 AM 33.1 °F 24.9 °F 32.0 °F 96% 29.44 in 1.0 mi NW 10.4 mph - N/A   Overcast
12:00 PM 33.8 °F 25.3 °F 32.0 °F 93% 29.40 in 0.8 mi NW 11.5 mph - N/A   Overcast
12:23 PM 33.8 °F 25.8 °F 32.0 °F 93% 29.39 in 1.0 mi NW 10.4 mph - N/A   Overcast
12:53 PM 33.1 °F 24.4 °F 30.9 °F 92% 29.42 in 1.2 mi NW 11.5 mph - N/A   Overcast
2:40 PM 32.0 °F 22.1 °F 30.2 °F 93% 29.38 in 1.8 mi NW 13.8 mph - N/A   Overcast
2:53 PM 30.9 °F 19.1 °F 28.9 °F 92% 29.43 in 2.5 mi NW 18.4 mph 25.3 mph N/A   Overcast
3:23 PM 28.4 °F 16.2 °F 26.6 °F 93% 29.41 in 1.8 mi NW 17.3 mph - N/A   Overcast
3:53 PM 28.9 °F 14.8 °F 26.1 °F 89% 29.45 in 1.8 mi NW 24.2 mph - N/A   Overcast
4:15 PM 26.6 °F 11.1 °F 24.8 °F 93% 29.42 in 2.0 mi NW 26.5 mph 31.1 mph N/A   Overcast
4:53 PM 25.0 °F 9.9 °F 23.0 °F 92% 29.47 in 3.0 mi NW 23.0 mph 33.4 mph N/A   Overcast
5:53 PM 24.1 °F 9.8 °F 21.0 °F 88% 29.51 in 4.0 mi NW 19.6 mph - N/A   Overcast
6:53 PM 21.9 °F 6.2 °F 19.0 °F 89% 29.56 in 3.0 mi WNW 21.9 mph - 0.00 in Rain Light Freezing Rain
7:20 PM 21.2 °F 4.9 °F 17.6 °F 86% 29.55 in 5.0 mi WNW 23.0 mph 34.5 mph 0.00 in Rain Light Freezing Rain
7:41 PM 21.2 °F 3.3 °F 17.6 °F 86% 29.55 in 4.0 mi WNW 28.8 mph 36.8 mph 0.00 in Rain Light Freezing Rain
7:48 PM 21.2 °F 2.2 °F 17.6 °F 86% 29.55 in 4.0 mi NW 33.4 mph 46.0 mph 0.00 in Rain Light Freezing Rain
7:53 PM 21.0 °F 3.9 °F 18.0 °F 88% 29.59 in 5.0 mi NW 25.3 mph 46.0 mph 0.00 in Rain Light Freezing Rain
8:07 PM 21.2 °F 2.7 °F 17.6 °F 86% 29.54 in 5.0 mi NW 31.1 mph 88.6 mph 0.00 in Rain Light Freezing Rain
8:27 PM 19.4 °F 1.8 °F 17.6 °F 93% 29.57 in 9.0 mi NW 25.3 mph 74.8 mph 0.00 in Rain Light Freezing Rain
8:44 PM 19.4 °F 2.1 °F 15.8 °F 86% 29.58 in 7.0 mi NW 24.2 mph 36.8 mph 0.00 in Snow Light Snow
8:50 PM 19.4 °F 3.2 °F 15.8 °F 86% 29.59 in 8.0 mi NW 20.7 mph 36.8 mph 0.00 in   Overcast
8:53 PM 19.0 °F 2.0 °F 16.0 °F 88% 29.64 in 7.0 mi WNW 23.0 mph 32.2 mph 0.00 in   Overcast
9:04 PM 19.4 °F 2.1 °F 15.8 °F 86% 29.58 in 6.0 mi NW 24.2 mph 70.2 mph 0.00 in Snow Light Snow
9:53 PM 17.1 °F -1.7 °F 10.9 °F 77% 29.64 in 6.0 mi NW 26.5 mph 32.2 mph 0.00 in Snow Light Snow
10:32 PM 15.8 °F -2.7 °F 10.4 °F 79% 29.63 in 10.0 mi NW 24.2 mph 31.1 mph 0.00 in Snow Light Snow
10:46 PM 15.8 °F -3.4 °F 10.4 °F 79% 29.63 in 3.0 mi NW 26.5 mph - 0.00 in Snow Light Snow
11:09 PM 14.0 °F -4.3 °F 8.6 °F 79% 29.65 in 9.0 mi NW 21.9 mph 35.7 mph 0.00 in Snow Light Snow
11:30 PM 14.0 °F -6.2 °F 8.6 °F 79% 29.67 in 2.0 mi NW 27.6 mph 35.7 mph 0.00 in Snow Light Snow
11:53 PM 12.9 °F -7.3 °F 8.1 °F 81% 29.74 in 4.0 mi NW 26.5 mph 33.4 mph 0.00 in Snow Light Snow